Location: Benque
(43.2594°N, 0.9178°E)
Time: 14:10:48
(UTC+00:00)

Daily predictions for brighter satellites

Satellite Brightness Start Highest point End
(mag) Time Altitude Azimuth Time Altitude Azimuth Time Altitude Azimuth
CORIOLIS 4.1 17:18:30 10° SSE 17:23:50 74° ENE 17:29:12 10° N
ISS -3.5 17:22:58 10° SW 17:26:19 60° SE 17:29:39 10° ENE
USA 234 3.3 17:19:58 10° ESE 17:26:28 75° NE 17:33:00 10° NW
SKYMED 2 4.5 17:23:29 10° NE 17:27:18 30° E 17:31:06 10° SSE
Cosmos 1271 Rocket 4.3 17:24:49 10° SW 17:28:18 37° WNW 17:31:50 10° N
SL-16 R/B 3.0 17:24:20 10° N 17:29:14 29° NE 17:34:05 10° ESE
ATLAS CENTAUR R/B 3.2 17:27:29 10° N 17:29:35 14° NE 17:31:36 10° ENE
CZ-4 R/B 2.4 17:27:36 10° ESE 17:30:57 25° ENE 17:34:22 10° NNE
Cosmos-2242 3.6 17:29:15 10° N 17:33:12 34° ENE 17:37:05 10° SE
Cosmos 1812 Rocket 3.7 17:30:32 10° N 17:35:02 87° W 17:39:31 10° S
Cosmos 2219 3.2 17:29:38 10° SSW 17:35:15 87° ESE 17:40:56 10° NNE
Cosmos 2341 Rocket 4.1 17:30:09 10° S 17:36:23 59° E 17:42:35 10° NNE
Cosmos 2082 4.4 17:31:24 10° SSE 17:36:24 34° ESE 17:41:25 10° NE
YAOGAN 1 3.4 17:39:20 10° SE 17:43:01 28° ENE 17:46:42 10° N
Cosmos 2297 Rocket 2.2 17:38:27 10° SSW 17:44:03 73° ESE 17:49:44 10° NNE
Iridium 96 4.4 17:43:38 10° NNE 17:45:48 29° E 17:48:02 10° SSE
H-2A ROCKET BODY 4.2 17:35:21 10° WSW 17:46:40 25° SSW 17:50:47 10° SSE
Cosmos 1980 3.9 17:43:02 10° NNW 17:48:46 80° WSW 17:54:26 10° SSE
H-2A R/B 4.2 17:45:08 10° S 17:48:47 42° W 17:52:30 10° NNW
Meteor 1-21 Rocket 4.2 17:44:21 10° S 17:49:56 72° E 17:55:38 10° NNE
Cosmos 2251 Rocket 4.2 17:45:44 10° N 17:50:28 32° ENE 17:55:12 10° ESE
Cosmos 1340 Rocket 3.8 17:47:49 10° NNW 17:51:41 51° W 17:55:34 10° S
Cosmos 2219 Rocket 4.4 17:47:47 10° NW 17:52:37 29° WSW 17:57:25 10° SSW
ADEOS Rocket 4.3 17:48:00 10° NE 17:53:32 25° E 17:59:24 10° SSE
Meteor 2-10 Rocket 3.7 17:50:20 10° N 17:55:29 49° ENE 18:00:24 10° SSE
ERBS 3.7 17:52:46 10° W 17:55:49 32° NW 17:58:46 11° NNE
SL-8 R/B 3.7 17:51:12 10° WSW 17:56:02 85° SSE 17:59:55 16° ENE
Cosmos 2227 Rocket 2.2 17:51:16 10° SSW 17:56:55 83° ESE 18:02:37 10° NNE
CZ-4 R/B 4.5 17:53:11 10° SSE 17:57:11 54° ENE 18:01:14 10° N
USA 32 4.0 17:52:39 10° S 17:57:53 87° E 18:03:08 10° N
FengYun 1-2 T 4.2 17:53:39 10° SSE 17:59:15 76° ENE 18:04:56 10° N
Cosmos 1339 Rocket 4.5 17:56:20 10° N 18:02:21 57° E 18:08:23 10° SSE
Cosmos 2218 Rocket 4.1 17:57:05 10° SSE 18:03:15 57° E 18:09:31 10° NNE
Envisat 3.8 18:06:17 10° S 18:11:15 56° W 18:16:16 10° NNW
Cosmos 1953 Rocket 3.5 18:08:44 10° S 18:13:12 77° E 18:17:42 10° N
DELTA 2 R/B (1) 3.9 18:09:19 10° W 18:14:48 60° S 18:18:56 18° ESE
COSMO-SKYMED 1 2.6 18:11:10 10° N 18:15:32 83° WNW 18:19:52 10° SSW
Cosmos 1758 Rocket 4.3 18:13:35 10° SSW 18:17:48 55° W 18:22:03 10° N
Cosmos 1842 Rocket 4.3 18:14:53 10° NNE 18:18:51 31° ENE 18:22:50 10° SE
Cosmos 1959 Rocket 4.4 18:13:39 10° S 18:19:47 75° E 18:25:54 10° N
YAOGAN 6 3.7 18:17:35 10° S 18:21:10 48° W 18:24:44 10° NNW
Cosmos 1703 3.1 18:19:40 10° S 18:23:37 77° E 18:27:36 10° N
Cosmos 44 3.2 18:19:20 10° SW 18:23:56 73° NW 18:27:21 17° NNE
CSL-04 Debris 4.0 18:22:39 10° SSE 18:28:01 77° ENE 18:33:26 10° N
Cosmos 1939 Rocket 2.7 18:26:12 10° SSE 18:30:03 63° ENE 18:34:00 10° N
Cosmos 2366 rocket 4.0 18:28:12 10° S 18:34:25 89° WNW 18:40:45 10° N
BREEZE-M DEB (TANK) 2.6 18:32:42 10° W 18:34:54 46° NNW 18:35:08 44° N
USA 267 4.3 18:30:19 14° NE 18:35:10 36° NNW 18:41:00 10° W
Meteor 2-12 Rocket 4.4 18:31:26 10° SSE 18:37:18 55° E 18:43:11 10° NNE
Shenzhou-11 Module 2.8 18:45:59 10° W 18:47:57 44° WSW 18:47:57 44° WSW
Cosmos 2237 Rocket 4.3 18:44:45 10° NW 18:49:24 27° WSW 18:54:02 10° SSW
CSL-04 Rocket 4.0 18:45:41 10° S 18:51:10 70° WSW 18:56:43 10° NNW
CZ-2D R/B 3.5 18:48:01 10° S 18:51:50 69° W 18:55:40 10° NNW
Cosmos 1455 3.9 18:49:28 10° NNW 18:52:56 34° W 18:56:22 10° SSW
USA 116 4.2 18:52:53 26° NNW 18:54:14 45° WNW 18:57:12 10° SSW
Ariane Rocket 2.9 18:49:37 10° SSE 18:54:35 59° ENE 18:59:35 10° N
Cosmos 44 Rocket 3.6 18:52:49 10° S 18:56:57 43° SE 18:56:57 43° SE
ISS -2.1 19:00:18 10° W 19:02:58 28° NNW 19:02:58 28° NNW
Cosmos 1727 Rocket 4.1 18:57:37 10° NNW 19:03:47 74° W 19:09:56 10° S
Cosmos 2221 3.7 18:59:53 10° N 19:02:03 29° N 19:02:03 29° N
CZ-4 R/B 3.5 19:02:22 10° SSW 19:05:52 28° W 19:09:26 10° NW
Atlas Centaur 2 3.7 19:02:43 10° SW 19:06:16 20° S 19:07:11 19° SSE
ATLAS CENTAUR R/B 1.6 19:05:09 10° NW 19:08:23 55° NW 19:08:23 55° NW
SL-16 R/B 3.2 19:08:09 10° NW 19:13:33 47° WSW 19:18:55 10° S
Cosmos 2227 4.3 19:08:57 10° S 19:14:12 57° SE 19:14:12 57° SE
Meteor 1-27 4.3 19:12:31 10° NNW 19:18:04 73° W 19:23:37 10° S
Cosmos 1603 4.0 19:20:44 10° NNW 19:25:18 53° NNE 19:25:18 53° NNE
H-2A R/B 3.6 19:30:17 23° N 19:30:17 23° N 19:32:11 10° N
Cosmos 2297 Rocket 4.4 19:24:36 10° W 19:28:43 20° NW 19:32:51 10° N
USA 238 DEB 4.0 19:23:36 10° SSW 19:28:45 46° SSE 19:28:45 46° SSE
USA 238 4.0 19:23:45 10° SSW 19:28:48 45° SSE 19:28:48 45° SSE
Meteor 2-2 Rocket 4.4 19:29:02 10° NNW 19:35:05 78° W 19:41:04 10° S
Cosmos 2263 Rocket 3.2 19:33:31 10° SSW 19:36:32 33° S 19:36:32 33° S
ADEOS Rocket 3.7 19:32:43 10° N 19:39:19 64° WNW 19:46:35 10° SSW
Cosmos 1821 Rocket 4.3 19:36:10 10° SSW 19:42:30 68° W 19:48:49 10° N
Cosmos 1943 4.4 19:53:30 10° NNW 19:56:29 33° NNW 19:56:29 33° NNW
BREEZE-M DEB (TANK) 4.3 19:39:29 10° WNW 20:05:15 78° NNE 20:05:42 76° NE
FALCON 9 R/B 4.2 20:20:22 10° WSW 20:27:43 28° SSW 20:27:43 28° SSW
